Chickasha, OK

9:57 AM CDT on May 28, 2017 (GMT -0500)
Chickasha Municipal

Weather History for KCHK - March, 2013

Change the Weather History Date:

Friday, March 8, 2013

  Actual Average Record
Temperature  
Mean Temperature 58 °F -  
Max Temperature 62 °F 64 °F 81 °F (1974)
Min Temperature 53 °F 37 °F 8 °F (1967)
Degree Days  
Heating Degree Days 8    
Growing Degree Days 8 (Base 50)    
Moisture  
Dew Point 49 °F    
Average Humidity 76    
Maximum Humidity 100    
Minimum Humidity 47    
Precipitation  
Precipitation 0.00 in - - ()
Sea Level Pressure  
Sea Level Pressure 30.01 in    
Wind  
Wind Speed 14 mph (SSE)    
Max Wind Speed 23 mph    
Max Gust Speed 31 mph    
Visibility 10 miles    
Events      
Averages and records for this station are not official NWS values.
T = Trace of Precipitation, MM = Missing Value Source: NWS Daily Summary

Daily Weather History Graph

Daily Weather History Graph

Search for Another Location

Airport or City:

Trip Planner

Search our weather history database for the weather conditions in past years. The results will help you decide how hot, cold, wet, or windy it might be!

Date:

Astronomy

Mar. 08, 2013 Rise Set
Actual Time 6:51 AM CST 6:33 PM CST
Civil Twilight 6:26 AM CST 6:59 PM CST
Nautical Twilight 5:57 AM CST 7:28 PM CST
Astronomical Twilight 5:27 AM CST 7:58 PM CST
Moon 4:30 AM CST (3/8) 3:35 PM CST (3/8)
Length of Visible Light 12h 32m
Length of Day
11h 42m
Waning Crescent, 11% of the Moon is Illuminated
Mar 8
Waning Crescent
Mar 11
New
Mar 19
First Quarter
Mar 27
Full
Apr 2
Last Quarter

Hourly Weather History & Observations

Time (CST) Temp. Dew Point Humidity Pressure Visibility Wind Dir Wind Speed Gust Speed Precip Events Conditions
12:15 AM 53.6 °F 33.8 °F 47% 30.06 in 10.0 mi SSE 9.2 mph - N/A   Clear
12:35 AM 53.6 °F 33.8 °F 47% 30.07 in 10.0 mi South 9.2 mph - N/A   Clear
12:55 AM 53.6 °F 33.8 °F 47% 30.06 in 10.0 mi South 10.4 mph - N/A   Clear
1:15 AM 53.6 °F 33.8 °F 47% 30.06 in 10.0 mi SSE 11.5 mph - N/A   Clear
1:35 AM 53.6 °F 35.6 °F 51% 30.06 in 10.0 mi SSE 10.4 mph - N/A   Clear
1:55 AM 53.6 °F 35.6 °F 51% 30.06 in 10.0 mi SSE 10.4 mph - N/A   Clear
2:15 AM 55.4 °F 37.4 °F 51% 30.06 in 10.0 mi South 12.7 mph - N/A   Clear
2:35 AM 55.4 °F 37.4 °F 51% 30.06 in 10.0 mi South 12.7 mph - N/A   Clear
2:55 AM 55.4 °F 37.4 °F 51% 30.05 in 10.0 mi South 12.7 mph 17.3 mph N/A   Clear
3:15 AM 55.4 °F 39.2 °F 54% 30.04 in 10.0 mi South 15.0 mph - N/A   Clear
3:35 AM 55.4 °F 41.0 °F 58% 30.04 in 10.0 mi South 15.0 mph - N/A   Clear
3:55 AM 55.4 °F 41.0 °F 58% 30.04 in 10.0 mi South 15.0 mph 18.4 mph N/A   Scattered Clouds
4:15 AM 53.6 °F 41.0 °F 62% 30.04 in 10.0 mi South 12.7 mph - N/A   Clear
4:35 AM 53.6 °F 41.0 °F 62% 30.04 in 10.0 mi South 13.8 mph - N/A   Clear
4:55 AM 53.6 °F 41.0 °F 62% 30.04 in 10.0 mi SSE 13.8 mph - N/A   Clear
5:15 AM 53.6 °F 41.0 °F 62% 30.04 in 10.0 mi SSE 12.7 mph - N/A   Clear
5:35 AM 53.6 °F 42.8 °F 67% 30.05 in 10.0 mi SSE 11.5 mph - N/A   Clear
5:55 AM 53.6 °F 42.8 °F 67% 30.06 in 10.0 mi South 12.7 mph - N/A   Scattered Clouds
6:15 AM 53.6 °F 42.8 °F 67% 30.06 in 10.0 mi South 15.0 mph 18.4 mph N/A   Clear
6:35 AM 53.6 °F 44.6 °F 72% 30.05 in 10.0 mi SSE 12.7 mph - N/A   Clear
6:55 AM 53.6 °F 44.6 °F 72% 30.06 in 10.0 mi SSE 11.5 mph - N/A   Clear
7:15 AM 53.6 °F 44.6 °F 72% 30.07 in 10.0 mi South 11.5 mph - N/A   Scattered Clouds
7:35 AM 53.6 °F 46.4 °F 77% 30.07 in 10.0 mi SSE 13.8 mph - N/A   Clear
7:55 AM 53.6 °F 46.4 °F 77% 30.07 in 10.0 mi SSE 11.5 mph - N/A   Scattered Clouds
8:15 AM 53.6 °F 46.4 °F 77% 30.08 in 10.0 mi SSE 10.4 mph 18.4 mph N/A   Scattered Clouds
8:35 AM 53.6 °F 48.2 °F 82% 30.08 in 10.0 mi SSE 12.7 mph 18.4 mph N/A   Scattered Clouds
8:55 AM 55.4 °F 50.0 °F 82% 30.09 in 10.0 mi SSE 13.8 mph 18.4 mph N/A   Overcast
9:15 AM 55.4 °F 50.0 °F 82% 30.09 in 10.0 mi SSE 13.8 mph 19.6 mph N/A   Overcast
9:35 AM 55.4 °F 50.0 °F 82% 30.10 in 10.0 mi South 15.0 mph - N/A   Overcast
9:55 AM 55.4 °F 50.0 °F 82% 30.10 in 10.0 mi South 13.8 mph 18.4 mph N/A   Overcast
10:15 AM 55.4 °F 50.0 °F 82% 30.10 in 10.0 mi SSE 13.8 mph 18.4 mph N/A   Overcast
10:35 AM 55.4 °F 50.0 °F 82% 30.09 in 10.0 mi SSE 13.8 mph 19.6 mph N/A   Overcast
10:55 AM 57.2 °F 51.8 °F 82% 30.08 in 10.0 mi SSE 16.1 mph 20.7 mph N/A   Mostly Cloudy
11:15 AM 59.0 °F 51.8 °F 77% 30.08 in 10.0 mi SSE 17.3 mph - N/A   Mostly Cloudy
11:35 AM 59.0 °F 51.8 °F 77% 30.07 in 10.0 mi SSE 18.4 mph 23.0 mph N/A   Mostly Cloudy
11:55 AM 60.8 °F 53.6 °F 77% 30.07 in 10.0 mi SSE 15.0 mph 20.7 mph N/A   Scattered Clouds
12:15 PM 60.8 °F 53.6 °F 77% 30.05 in 10.0 mi SSE 15.0 mph 19.6 mph N/A   Scattered Clouds
12:35 PM 60.8 °F 53.6 °F 77% 30.04 in 10.0 mi SSE 15.0 mph 24.2 mph N/A   Mostly Cloudy
12:55 PM 60.8 °F 53.6 °F 77% 30.03 in 10.0 mi SSE 16.1 mph 23.0 mph N/A   Mostly Cloudy
1:15 PM 60.8 °F 53.6 °F 77% 30.02 in 10.0 mi South 20.7 mph 26.5 mph N/A   Mostly Cloudy
1:35 PM 62.6 °F 53.6 °F 72% 30.00 in 10.0 mi SSE 17.3 mph 24.2 mph N/A   Scattered Clouds
1:55 PM 62.6 °F 53.6 °F 72% 30.00 in 10.0 mi SSE 17.3 mph 26.5 mph N/A   Mostly Cloudy
2:15 PM 62.6 °F 53.6 °F 72% 29.99 in 10.0 mi SSE 15.0 mph 21.9 mph N/A   Mostly Cloudy
2:35 PM 62.6 °F 53.6 °F 72% 29.98 in 10.0 mi SSE 18.4 mph 26.5 mph N/A   Mostly Cloudy
2:55 PM 62.6 °F 53.6 °F 72% 29.98 in 10.0 mi South 20.7 mph 28.8 mph N/A   Mostly Cloudy
3:15 PM 62.6 °F 53.6 °F 72% 29.97 in 10.0 mi SSE 19.6 mph 24.2 mph N/A   Mostly Cloudy
3:35 PM 62.6 °F 53.6 °F 72% 29.97 in 10.0 mi SSE 20.7 mph 26.5 mph N/A   Overcast
3:55 PM 60.8 °F 53.6 °F 77% 29.97 in 10.0 mi SSE 23.0 mph 27.6 mph N/A   Overcast
4:15 PM 60.8 °F 55.4 °F 82% 29.97 in 10.0 mi SSE 18.4 mph 25.3 mph N/A   Overcast
4:35 PM 60.8 °F 53.6 °F 77% 29.95 in 10.0 mi SSE 15.0 mph 25.3 mph N/A   Overcast
4:55 PM 60.8 °F 53.6 °F 77% 29.95 in 10.0 mi SSE 18.4 mph 25.3 mph N/A   Overcast
5:15 PM 60.8 °F 53.6 °F 77% 29.95 in 10.0 mi SSE 20.7 mph 25.3 mph N/A   Overcast
5:35 PM 59.0 °F 53.6 °F 82% 29.95 in 10.0 mi SSE 19.6 mph 25.3 mph N/A   Overcast
5:55 PM 59.0 °F 53.6 °F 82% 29.95 in 10.0 mi SSE 17.3 mph 26.5 mph N/A   Overcast
6:15 PM 59.0 °F 53.6 °F 82% 29.95 in 10.0 mi SSE 18.4 mph 26.5 mph N/A   Overcast
6:35 PM 59.0 °F 53.6 °F 82% 29.95 in 10.0 mi SSE 18.4 mph 27.6 mph N/A   Overcast
6:55 PM 59.0 °F 53.6 °F 82% 29.96 in 10.0 mi SSE 20.7 mph 26.5 mph N/A   Overcast
7:15 PM 59.0 °F 55.4 °F 88% 29.96 in 10.0 mi SSE 23.0 mph 26.5 mph N/A   Overcast
7:35 PM 57.2 °F 55.4 °F 94% 29.96 in 10.0 mi SSE 16.1 mph 29.9 mph N/A   Overcast
7:55 PM 55.4 °F 53.6 °F 94% 29.97 in 10.0 mi SE 13.8 mph 26.5 mph N/A   Overcast
8:15 PM 55.4 °F 55.4 °F 100% 29.96 in 7.0 mi SE 17.3 mph - N/A   Overcast
8:35 PM 55.4 °F 55.4 °F 100% 29.96 in 7.0 mi SSE 16.1 mph 23.0 mph N/A   Overcast
8:55 PM 55.4 °F 55.4 °F 100% 29.96 in 5.0 mi SE 17.3 mph 26.5 mph N/A   Overcast
9:15 PM 55.4 °F 55.4 °F 100% 29.95 in 5.0 mi SE 15.0 mph 20.7 mph N/A   Overcast
9:35 PM 55.4 °F 55.4 °F 100% 29.95 in 5.0 mi SSE 17.3 mph 20.7 mph N/A   Overcast
9:55 PM 55.4 °F 55.4 °F 100% 29.94 in 5.0 mi SE 18.4 mph 25.3 mph N/A   Overcast
10:15 PM 55.4 °F 55.4 °F 100% 29.92 in 7.0 mi SSE 18.4 mph 24.2 mph N/A   Overcast
10:35 PM 55.4 °F 55.4 °F 100% 29.90 in 10.0 mi SSE 19.6 mph 28.8 mph N/A   Overcast
10:55 PM 55.4 °F 55.4 °F 100% 29.90 in 10.0 mi SSE 18.4 mph 31.1 mph N/A   Overcast
11:15 PM 55.4 °F 55.4 °F 100% 29.91 in 10.0 mi SSE 19.6 mph 27.6 mph N/A   Overcast
11:35 PM 57.2 °F 55.4 °F 94% 29.92 in 10.0 mi SSE 16.1 mph 25.3 mph N/A   Overcast
11:55 PM 59.0 °F 57.2 °F 94% 29.92 in 10.0 mi SSE 16.1 mph 20.7 mph N/A   Overcast